C/2009 T3 ( LINEAR )

Japanese version
Home page
Updated on October 3, 2010

---------------------------------------------------------------------

* Profile

Discovery Date October 14, 2009
Magnitude 19.3 mag
Discoverer Lincoln Laboratory Near-Earth Asteroid Research project

* Pictures

* Orbital Elements

The following orbital elements are taken from MPC 69416:

Epoch 2010 Jan. 4.0 TT = JDT 2455200.5
T 2010 Jan. 12.0644 TT                                  MPC
q   2.281107             (2000.0)            P               Q
z  +0.000279       Peri.   32.4506      +0.8183413      +0.3577656
                   Node    60.0930      +0.3505468      -0.9309014
e   0.999364       Incl.  148.7415      +0.4554498      +0.0736639
From 357 observations 2009 Oct. 14-2010 Jan. 24.

* Magnitudes Graph

        m1 = 12.5 + 5 log d + 10.0 log r

---------------------------------------------------------------------

The orbital elements are published at the MPC Ephemerides and Orbital Elements.
The magnitudes graphs are made with Comet for Windows.

---------------------------------------------------------------------

Copyright(C) Seiichi Yoshida (comet@aerith.net). All rights reserved.